Regional Weather Roundup
Issued by NWS

Home | Current Version | Previous Version | Text Only | Print | Product List | Glossary On
Versions: 1 2 3 4 5 6 7 8 9 10 11 12 13 14 15 16 17 18 19 20 21 22 23 24 25 26 27 28 29 30 31 32 33 34 35 36 37 38 39 40 41 42 43 44 45 46 47 48 49 50
000
ASUS45 KREV 301010
RWRNV
NEVADA REGIONAL WEATHER ROUNDUP
NATIONAL WEATHER SERVICE RENO NV
300 AM PDT TUE MAY 30 2017

NOTE: "FAIR" INDICATES FEW OR NO CLOUDS BELOW 12,000 FEET WITH NO
SIGNIFICANT WEATHER AND/OR OBSTRUCTIONS TO VISIBILITY.

NVZ001-003-004-301100-
WESTERN NEVADA

CITY           SKY/WX    TMP DP  RH WIND       PRES   REMARKS
RENO           CLEAR     63  34  33 NW3       30.02F
CARSON CITY    FAIR      52  39  62 CALM      30.05S
MINDEN         FAIR      43  36  75 SE6       30.06R
FALLON         CLEAR     56  34  43 SW6       29.95F
LOVELOCK       CLEAR     58  28  32 CALM      29.95S
HAWTHORNE      CLEAR     63  34  34 SW8       29.98R
$$

NVZ002-CAZ072-073-301100-
NORTHERN AND CENTRAL SIERRA

CITY           SKY/WX    TMP DP  RH WIND       PRES   REMARKS
S. LAKE TAHOE  CLEAR     41  34  76 CALM      30.14S
TRUCKEE        CLEAR     39  34  81 CALM      30.14S
SQUAW VLY 8000   N/A     43  27  52 W1          N/A
SUSANVILLE     CLEAR     52  37  58 CALM      30.02S
MAMMOTH LAKES  FAIR      48  30  50 CALM      30.18S
BRIDGEPORT     FAIR      42  28  57 CALM      30.16S
$$

NVZ030-031-036-301100-
NORTHERN NEVADA

CITY           SKY/WX    TMP DP  RH WIND       PRES   REMARKS
ELKO           CLEAR     45  37  73 SW5       30.08S
WINNEMUCCA     CLEAR     61  32  33 NE13      29.99S
WENDOVER       CLEAR     58  30  34 CALM      30.06S
$$

NVZ035-037-301100-
CENTRAL NEVADA

CITY           SKY/WX    TMP DP  RH WIND       PRES   REMARKS
ELY            CLEAR     41  27  57 S10       30.17S
EUREKA           N/A     46  27  47 S7        30.10S
$$

NVZ013-014-301100-
SOUTH CENTRAL NEVADA

CITY           SKY/WX    TMP DP  RH WIND       PRES   REMARKS
TONOPAH        CLEAR     54  19  25 N12       30.06R
$$

NVZ017-020-022-301100-
SOUTHERN NEVADA

CITY           SKY/WX    TMP DP  RH WIND       PRES   REMARKS
LAS VEGAS      PTCLDY    79  15   9 SW5       29.80S
N. LAS VEGAS   CLEAR     74  29  19 NW7       29.81R
NELLIS AFB     CLEAR     75  21  13 CALM      29.79S
HENDERSON      CLEAR     73  18  12 S12       29.85R
MERCURY        CLEAR     65  15  14 E6        29.89R
$$



USA.gov is the U.S. government's official web portal to all federal, state and local government web resources and services.